Time,TemperatureF,DewpointF,PressureIn,WindDirection,WindDirectionDegrees,WindSpeedMPH,WindSpeedGustMPH,Humidity,HourlyPrecipIn,Conditions,Clouds,dailyrainin,SoftwareType,DateUTC
2013-02-01 00:00:00,28.2,14.0,29.47,SW,225,0.0,0.0,55,0.00,,,0.32,WUHU216HW,2013-02-01 05:00:00,
2013-02-01 00:03:00,28.2,14.0,29.48,SW,225,0.0,0.0,55,0.00,,,0.00,WUHU216HW,2013-02-01 05:03:00,
2013-02-01 00:08:00,28.2,14.5,29.47,SW,225,0.0,0.0,56,0.00,,,0.00,WUHU216HW,2013-02-01 05:08:00,
2013-02-01 00:13:00,28.2,14.5,29.46,SW,225,0.0,0.0,56,0.00,,,0.00,WUHU216HW,2013-02-01 05:13:00,
2013-02-01 00:18:00,28.0,14.3,29.46,SW,225,0.0,0.0,56,0.00,,,0.00,WUHU216HW,2013-02-01 05:18:00,
2013-02-01 00:23:00,27.6,13.9,29.46,SW,225,0.0,0.0,56,0.00,,,0.00,WUHU216HW,2013-02-01 05:23:00,
2013-02-01 00:28:00,27.5,14.1,29.45,SW,225,0.0,0.0,56,0.00,,,0.00,WUHU216HW,2013-02-01 05:28:00,
2013-02-01 00:33:00,27.1,14.0,29.46,SW,225,0.0,0.0,57,0.00,,,0.00,WUHU216HW,2013-02-01 05:33:00,
2013-02-01 00:38:00,26.9,14.2,29.45,SW,225,0.0,0.0,58,0.00,,,0.00,WUHU216HW,2013-02-01 05:38:00,
2013-02-01 00:43:00,26.7,14.3,29.46,SW,225,0.0,0.0,59,0.00,,,0.00,WUHU216HW,2013-02-01 05:43:00,
2013-02-01 00:48:00,26.4,14.3,29.45,SW,225,0.0,0.0,60,0.00,,,0.00,WUHU216HW,2013-02-01 05:48:00,
2013-02-01 00:53:00,26.2,14.5,29.45,SW,225,0.0,0.0,61,0.00,,,0.00,WUHU216HW,2013-02-01 05:53:00,
2013-02-01 00:58:00,25.8,14.2,29.45,SW,225,0.0,0.0,61,0.00,,,0.00,WUHU216HW,2013-02-01 05:58:00,
2013-02-01 01:03:00,25.7,14.0,29.46,SW,225,0.0,0.0,61,0.00,,,0.00,WUHU216HW,2013-02-01 06:03:00,
2013-02-01 01:08:00,25.5,14.2,29.46,SW,225,0.0,0.0,62,0.00,,,0.00,WUHU216HW,2013-02-01 06:08:00,
2013-02-01 01:14:00,25.5,14.6,29.46,SW,225,0.0,0.0,63,0.00,,,0.00,WUHU216HW,2013-02-01 06:14:00,
2013-02-01 01:19:00,25.3,14.7,29.45,SW,225,0.0,0.0,64,0.00,,,0.00,WUHU216HW,2013-02-01 06:19:00,
2013-02-01 01:24:00,25.3,15.1,29.45,SW,225,0.0,0.0,65,0.00,,,0.00,WUHU216HW,2013-02-01 06:24:00,
2013-02-01 01:29:00,25.1,14.9,29.45,SW,225,0.0,0.0,65,0.00,,,0.00,WUHU216HW,2013-02-01 06:29:00,
2013-02-01 01:34:00,25.1,15.3,29.45,SW,225,0.0,0.0,66,0.00,,,0.00,WUHU216HW,2013-02-01 06:34:00,
2013-02-01 01:39:00,25.1,15.3,29.46,SW,225,0.0,0.0,66,0.00,,,0.00,WUHU216HW,2013-02-01 06:39:00,
2013-02-01 01:44:00,25.1,15.3,29.46,SW,225,0.0,0.0,66,0.00,,,0.00,WUHU216HW,2013-02-01 06:44:00,
2013-02-01 01:49:00,25.3,15.4,29.45,SW,225,0.0,0.0,66,0.00,,,0.00,WUHU216HW,2013-02-01 06:49:00,
2013-02-01 01:54:00,25.5,15.6,29.46,SW,225,0.0,0.0,66,0.00,,,0.00,WUHU216HW,2013-02-01 06:54:00,
2013-02-01 01:59:00,25.7,15.8,29.46,SSE,158,0.0,0.0,66,0.00,,,0.00,WUHU216HW,2013-02-01 06:59:00,
2013-02-01 02:04:00,26.0,15.8,29.46,SSE,158,0.0,0.0,65,0.00,,,0.00,WUHU216HW,2013-02-01 07:04:00,
2013-02-01 02:09:00,26.2,15.9,29.46,SSE,158,0.0,0.0,65,0.00,,,0.00,WUHU216HW,2013-02-01 07:09:00,
2013-02-01 02:14:00,26.4,16.1,29.45,SSE,158,0.0,0.0,65,0.00,,,0.00,WUHU216HW,2013-02-01 07:14:00,
2013-02-01 02:19:00,26.6,15.9,29.45,SSE,158,0.0,0.0,64,0.00,,,0.00,WUHU216HW,2013-02-01 07:19:00,
2013-02-01 02:24:00,26.7,16.1,29.45,SSE,158,0.0,0.0,64,0.00,,,0.00,WUHU216HW,2013-02-01 07:24:00,
2013-02-01 02:29:00,26.9,16.3,29.45,South,180,0.0,0.0,64,0.00,,,0.00,WUHU216HW,2013-02-01 07:29:00,
2013-02-01 02:34:00,27.1,16.5,29.45,SSW,203,0.0,0.0,64,0.00,,,0.00,WUHU216HW,2013-02-01 07:34:00,
2013-02-01 02:39:00,27.3,16.7,29.45,SSW,203,0.0,0.0,64,0.00,,,0.00,WUHU216HW,2013-02-01 07:39:00,
2013-02-01 02:44:00,27.5,16.8,29.45,SSW,203,0.0,0.0,64,0.00,,,0.00,WUHU216HW,2013-02-01 07:44:00,
2013-02-01 02:49:00,27.6,17.0,29.44,SSW,203,0.0,0.0,64,0.00,,,0.00,WUHU216HW,2013-02-01 07:49:00,
2013-02-01 02:54:00,28.0,17.4,29.45,SSW,203,0.0,0.0,64,0.00,,,0.00,WUHU216HW,2013-02-01 07:54:00,
2013-02-01 02:59:00,28.0,17.4,29.45,SSW,203,0.0,1.5,64,0.00,,,0.00,WUHU216HW,2013-02-01 07:59:00,
2013-02-01 03:04:00,28.2,17.6,29.44,SSW,203,0.0,1.5,64,0.00,,,0.00,WUHU216HW,2013-02-01 08:04:00,
2013-02-01 03:09:00,28.4,17.6,29.44,SSW,203,0.0,0.0,64,0.00,,,0.00,WUHU216HW,2013-02-01 08:09:00,
2013-02-01 03:14:00,28.5,17.5,29.44,SSW,203,0.0,0.0,63,0.00,,,0.00,WUHU216HW,2013-02-01 08:14:00,
2013-02-01 03:19:00,28.5,17.7,29.44,SSW,203,0.0,1.5,63,0.00,,,0.00,WUHU216HW,2013-02-01 08:19:00,
2013-02-01 03:24:00,28.7,17.7,29.44,WSW,248,2.4,2.4,63,0.00,,,0.00,WUHU216HW,2013-02-01 08:24:00,
2013-02-01 03:29:00,29.1,18.0,29.44,SSW,203,0.0,2.4,63,0.00,,,0.00,WUHU216HW,2013-02-01 08:29:00,
2013-02-01 03:35:00,29.1,18.0,29.43,SW,225,0.0,0.0,63,0.00,,,0.00,WUHU216HW,2013-02-01 08:35:00,
2013-02-01 03:40:00,29.3,18.2,29.43,SW,225,0.0,0.0,63,0.00,,,0.00,WUHU216HW,2013-02-01 08:40:00,
2013-02-01 03:45:00,29.4,18.3,29.43,SW,225,0.0,0.0,63,0.00,,,0.00,WUHU216HW,2013-02-01 08:45:00,
2013-02-01 03:50:00,29.4,18.3,29.43,WSW,248,0.0,2.6,63,0.00,,,0.00,WUHU216HW,2013-02-01 08:50:00,
2013-02-01 03:55:00,29.4,18.3,29.44,WSW,248,0.0,2.9,63,0.00,,,0.00,WUHU216HW,2013-02-01 08:55:00,
2013-02-01 04:00:00,29.6,18.5,29.44,SW,225,0.0,2.9,63,0.00,,,0.00,WUHU216HW,2013-02-01 09:00:00,
2013-02-01 04:05:00,29.8,18.7,29.44,WSW,248,0.0,8.2,63,0.00,,,0.00,WUHU216HW,2013-02-01 09:05:00,
2013-02-01 04:10:00,29.8,18.7,29.44,WNW,293,0.0,8.2,63,0.00,,,0.00,WUHU216HW,2013-02-01 09:10:00,
2013-02-01 04:15:00,30.0,18.8,29.44,NW,315,0.0,0.0,63,0.00,,,0.00,WUHU216HW,2013-02-01 09:15:00,
2013-02-01 04:20:00,30.0,18.8,29.44,SW,225,1.7,1.7,63,0.00,,,0.00,WUHU216HW,2013-02-01 09:20:00,
2013-02-01 04:25:00,30.0,19.2,29.44,West,270,0.0,4.6,64,0.00,,,0.00,WUHU216HW,2013-02-01 09:25:00,
2013-02-01 04:30:00,29.8,19.7,29.45,WSW,248,0.0,4.6,66,0.00,,,0.00,WUHU216HW,2013-02-01 09:30:00,
2013-02-01 04:35:00,29.4,19.8,29.45,South,180,0.0,0.0,67,0.00,,,0.00,WUHU216HW,2013-02-01 09:35:00,
2013-02-01 04:40:00,29.1,20.0,29.45,WSW,248,0.0,0.0,68,0.00,,,0.00,WUHU216HW,2013-02-01 09:40:00,
2013-02-01 04:45:00,29.1,19.8,29.45,SW,225,0.0,0.0,68,0.00,,,0.00,WUHU216HW,2013-02-01 09:45:00,
2013-02-01 04:50:00,29.1,20.2,29.45,SSW,203,0.0,0.0,69,0.00,,,0.00,WUHU216HW,2013-02-01 09:50:00,
2013-02-01 04:55:00,29.1,20.5,29.45,SSW,203,0.0,0.0,70,0.00,,,0.00,WUHU216HW,2013-02-01 09:55:00,
2013-02-01 05:00:00,29.1,20.5,29.45,SW,225,0.0,0.0,70,0.00,,,0.00,WUHU216HW,2013-02-01 10:00:00,
2013-02-01 05:05:00,28.9,21.0,29.46,WSW,248,8.7,8.7,72,0.00,,,0.00,WUHU216HW,2013-02-01 10:05:00,
2013-02-01 05:10:00,28.7,21.1,29.47,WNW,293,10.0,10.0,73,0.00,,,0.00,WUHU216HW,2013-02-01 10:10:00,
2013-02-01 05:15:00,28.4,21.3,29.47,NNW,338,8.9,10.0,74,0.00,,,0.00,WUHU216HW,2013-02-01 10:15:00,
2013-02-01 05:20:00,28.0,21.7,29.48,NNW,338,6.7,10.9,77,0.00,,,0.00,WUHU216HW,2013-02-01 10:20:00,
2013-02-01 05:25:00,27.3,21.3,29.48,NW,315,3.8,10.9,78,0.00,,,0.00,WUHU216HW,2013-02-01 10:25:00,
2013-02-01 05:30:00,27.1,21.4,29.49,WNW,293,4.6,4.6,79,0.00,,,0.00,WUHU216HW,2013-02-01 10:30:00,
2013-02-01 05:35:00,26.7,21.0,29.49,WNW,293,4.0,5.3,79,0.00,,,0.00,WUHU216HW,2013-02-01 10:35:00,
2013-02-01 05:40:00,26.6,21.2,29.49,WNW,293,6.0,15.2,80,0.00,,,0.00,WUHU216HW,2013-02-01 10:40:00,
2013-02-01 05:45:00,26.4,21.0,29.49,NW,315,0.0,15.2,80,0.00,,,0.00,WUHU216HW,2013-02-01 10:45:00,
2013-02-01 05:50:00,26.4,21.0,29.50,NNW,338,0.0,5.3,80,0.00,,,0.00,WUHU216HW,2013-02-01 10:50:00,
2013-02-01 05:55:00,26.2,20.8,29.50,WNW,293,0.0,6.7,80,0.00,,,0.00,WUHU216HW,2013-02-01 10:55:00,
2013-02-01 06:00:00,26.0,20.7,29.50,NNW,338,4.0,6.7,80,0.00,,,0.00,WUHU216HW,2013-02-01 11:00:00,
2013-02-01 06:06:00,25.8,20.8,29.50,NNW,338,2.9,4.6,81,0.00,,,0.00,WUHU216HW,2013-02-01 11:06:00,
2013-02-01 06:11:00,25.7,20.3,29.50,WNW,293,0.0,6.2,80,0.00,,,0.00,WUHU216HW,2013-02-01 11:11:00,
2013-02-01 06:16:00,25.8,20.5,29.50,NW,315,6.7,6.7,80,0.00,,,0.00,WUHU216HW,2013-02-01 11:16:00,
2013-02-01 06:21:00,25.8,20.2,29.49,NNW,338,0.0,6.7,79,0.00,,,0.00,WUHU216HW,2013-02-01 11:21:00,
2013-02-01 06:26:00,25.8,19.9,29.49,West,270,0.0,3.3,78,0.00,,,0.00,WUHU216HW,2013-02-01 11:26:00,
2013-02-01 06:31:00,25.8,19.5,29.49,WNW,293,0.0,3.3,77,0.00,,,0.00,WUHU216HW,2013-02-01 11:31:00,
2013-02-01 06:36:00,25.8,19.5,29.50,WNW,293,0.0,2.0,77,0.00,,,0.00,WUHU216HW,2013-02-01 11:36:00,
2013-02-01 06:41:00,25.8,19.5,29.50,WNW,293,0.0,4.0,77,0.00,,,0.00,WUHU216HW,2013-02-01 11:41:00,
2013-02-01 06:46:00,25.8,19.5,29.50,WNW,293,5.3,5.3,77,0.00,,,0.00,WUHU216HW,2013-02-01 11:46:00,
2013-02-01 06:51:00,25.8,19.5,29.51,West,270,5.1,5.3,77,0.00,,,0.00,WUHU216HW,2013-02-01 11:51:00,
2013-02-01 06:56:00,25.8,19.7,29.51,NW,315,6.4,6.4,77,0.00,,,0.00,WUHU216HW,2013-02-01 11:56:00,
2013-02-01 07:01:00,26.0,19.7,29.51,West,270,0.8,7.1,77,0.00,,,0.00,WUHU216HW,2013-02-01 12:01:00,
2013-02-01 07:06:00,26.0,19.9,29.51,NW,315,8.2,9.6,77,0.00,,,0.00,WUHU216HW,2013-02-01 12:06:00,
2013-02-01 07:11:00,26.2,19.9,29.52,West,270,11.4,11.4,77,0.00,,,0.00,WUHU216HW,2013-02-01 12:11:00,
2013-02-01 07:16:00,25.8,20.2,29.53,West,270,7.6,13.1,79,0.00,,,0.00,WUHU216HW,2013-02-01 12:16:00,
2013-02-01 07:21:00,25.5,19.5,29.54,NW,315,10.5,13.1,78,0.00,,,0.00,WUHU216HW,2013-02-01 12:21:00,
2013-02-01 07:26:00,25.1,17.6,29.54,WSW,248,5.3,14.3,73,0.00,,,0.00,WUHU216HW,2013-02-01 12:26:00,
2013-02-01 07:31:00,24.9,17.1,29.54,West,270,4.6,14.3,72,0.00,,,0.00,WUHU216HW,2013-02-01 12:31:00,
2013-02-01 07:36:00,24.6,15.4,29.54,WSW,248,4.0,9.1,67,0.00,,,0.00,WUHU216HW,2013-02-01 12:36:00,
2013-02-01 07:41:00,24.4,14.2,29.56,WNW,293,8.2,10.7,65,0.00,,,0.00,WUHU216HW,2013-02-01 12:41:00,
2013-02-01 07:46:00,24.4,13.5,29.56,West,270,0.0,22.1,63,0.00,,,0.00,WUHU216HW,2013-02-01 12:46:00,
2013-02-01 07:51:00,24.0,13.2,29.57,WNW,293,10.9,22.1,63,0.00,,,0.00,WUHU216HW,2013-02-01 12:51:00,
2013-02-01 07:56:00,24.0,12.8,29.58,WNW,293,9.3,10.9,62,0.00,,,0.00,WUHU216HW,2013-02-01 12:56:00,
2013-02-01 08:01:00,24.0,12.5,29.59,West,270,3.3,12.7,61,0.00,,,0.00,WUHU216HW,2013-02-01 13:01:00,
2013-02-01 08:06:00,24.0,11.7,29.60,WNW,293,7.3,22.1,59,0.00,,,0.00,WUHU216HW,2013-02-01 13:06:00,
2013-02-01 08:11:00,24.0,11.7,29.60,WNW,293,13.4,22.1,59,0.00,,,0.00,WUHU216HW,2013-02-01 13:11:00,
2013-02-01 08:16:00,24.6,12.3,29.61,West,270,9.3,16.1,59,0.00,,,0.00,WUHU216HW,2013-02-01 13:16:00,
2013-02-01 08:21:00,25.3,12.5,29.61,WNW,293,11.8,16.1,58,0.00,,,0.00,WUHU216HW,2013-02-01 13:21:00,
2013-02-01 08:26:00,25.7,12.0,29.61,NW,315,6.4,13.6,56,0.00,,,0.00,WUHU216HW,2013-02-01 13:26:00,
2013-02-01 08:31:00,26.2,12.5,29.62,WSW,248,8.7,13.6,56,0.00,,,0.00,WUHU216HW,2013-02-01 13:31:00,
2013-02-01 08:36:00,26.4,12.7,29.62,West,270,3.8,10.0,56,0.00,,,0.00,WUHU216HW,2013-02-01 13:36:00,
2013-02-01 08:41:00,26.7,12.2,29.62,West,270,8.2,8.2,54,0.00,,,0.00,WUHU216HW,2013-02-01 13:41:00,
2013-02-01 08:46:00,26.9,12.0,29.62,NW,315,7.3,11.6,53,0.00,,,0.00,WUHU216HW,2013-02-01 13:46:00,
2013-02-01 08:51:00,27.1,12.1,29.62,West,270,0.0,11.6,53,0.00,,,0.00,WUHU216HW,2013-02-01 13:51:00,
2013-02-01 08:56:00,27.1,11.7,29.62,WNW,293,8.7,12.3,52,0.00,,,0.00,WUHU216HW,2013-02-01 13:56:00,
2013-02-01 09:01:00,27.1,11.7,29.62,NW,315,4.6,13.6,52,0.00,,,0.00,WUHU216HW,2013-02-01 14:01:00,
2013-02-01 09:07:00,27.3,12.1,29.63,West,270,6.2,13.6,53,0.00,,,0.00,WUHU216HW,2013-02-01 14:07:00,
2013-02-01 09:12:00,27.1,11.3,29.63,WNW,293,8.5,13.4,51,0.00,,,0.00,WUHU216HW,2013-02-01 14:12:00,
2013-02-01 09:17:00,27.1,11.3,29.64,WNW,293,16.5,19.4,51,0.00,,,0.00,WUHU216HW,2013-02-01 14:17:00,
2013-02-01 09:22:00,26.9,11.5,29.64,West,270,0.0,19.4,52,0.00,,,0.00,WUHU216HW,2013-02-01 14:22:00,
2013-02-01 09:27:00,26.9,12.0,29.64,West,270,0.0,10.9,53,0.00,,,0.00,WUHU216HW,2013-02-01 14:27:00,
2013-02-01 09:32:00,26.6,11.2,29.64,WSW,248,7.6,9.8,53,0.00,,,0.00,WUHU216HW,2013-02-01 14:32:00,
2013-02-01 09:37:00,26.6,11.6,29.65,WNW,293,10.7,10.7,53,0.00,,,0.00,WUHU216HW,2013-02-01 14:37:00,
2013-02-01 09:42:00,26.9,11.5,29.66,WNW,293,1.3,13.4,52,0.00,,,0.00,WUHU216HW,2013-02-01 14:42:00,
2013-02-01 09:47:00,27.1,11.7,29.66,NW,315,8.7,14.3,52,0.00,,,0.00,WUHU216HW,2013-02-01 14:47:00,
2013-02-01 09:52:00,27.1,10.9,29.66,West,270,9.8,20.1,50,0.00,,,0.00,WUHU216HW,2013-02-01 14:52:00,
2013-02-01 09:57:00,27.1,10.9,29.67,West,270,15.2,20.1,50,0.00,,,0.00,WUHU216HW,2013-02-01 14:57:00,
2013-02-01 10:02:00,27.3,11.1,29.67,NW,315,7.8,17.8,50,0.00,,,0.00,WUHU216HW,2013-02-01 15:02:00,
2013-02-01 10:07:00,26.7,9.5,29.67,West,270,10.0,22.5,48,0.00,,,0.00,WUHU216HW,2013-02-01 15:07:00,
2013-02-01 10:12:00,26.4,9.7,29.67,WNW,293,8.9,22.5,49,0.00,,,0.00,WUHU216HW,2013-02-01 15:12:00,
2013-02-01 10:17:00,26.7,10.5,29.68,WNW,293,8.0,17.0,50,0.00,,,0.00,WUHU216HW,2013-02-01 15:17:00,
2013-02-01 10:22:00,27.3,11.1,29.68,WNW,293,2.4,17.0,50,0.00,,,0.00,WUHU216HW,2013-02-01 15:22:00,
2013-02-01 10:27:00,27.3,11.1,29.68,NW,315,12.5,14.3,50,0.00,,,0.00,WUHU216HW,2013-02-01 15:27:00,
2013-02-01 10:32:00,26.9,10.2,29.69,WNW,293,6.7,12.5,49,0.00,,,0.00,WUHU216HW,2013-02-01 15:32:00,
2013-02-01 10:37:00,26.7,10.0,29.69,NW,315,10.9,22.5,49,0.00,,,0.00,WUHU216HW,2013-02-01 15:37:00,
2013-02-01 10:42:00,27.1,10.4,29.70,NNW,338,9.3,22.5,49,0.00,,,0.00,WUHU216HW,2013-02-01 15:42:00,
2013-02-01 10:47:00,26.9,9.7,29.70,West,270,8.0,18.5,48,0.00,,,0.00,WUHU216HW,2013-02-01 15:47:00,
2013-02-01 10:52:00,26.4,9.2,29.70,West,270,9.6,18.5,48,0.00,,,0.00,WUHU216HW,2013-02-01 15:52:00,
2013-02-01 10:57:00,26.4,9.7,29.70,WNW,293,3.8,15.4,49,0.00,,,0.00,WUHU216HW,2013-02-01 15:57:00,
2013-02-01 11:02:00,26.4,10.6,29.71,WSW,248,6.0,14.9,51,0.00,,,0.00,WUHU216HW,2013-02-01 16:02:00,
2013-02-01 11:07:00,26.4,10.2,29.71,WNW,293,3.1,9.8,50,0.00,,,0.00,WUHU216HW,2013-02-01 16:07:00,
2013-02-01 11:12:00,26.4,10.6,29.71,West,270,1.7,9.8,51,0.00,,,0.00,WUHU216HW,2013-02-01 16:12:00,
2013-02-01 11:17:00,26.4,10.6,29.72,WSW,248,2.9,13.8,51,0.00,,,0.00,WUHU216HW,2013-02-01 16:17:00,
2013-02-01 11:22:00,26.4,10.4,29.72,SSW,203,5.8,13.8,50,0.00,,,0.00,WUHU216HW,2013-02-01 16:22:00,
2013-02-01 11:27:00,27.3,11.5,29.72,West,270,9.8,16.3,51,0.00,,,0.00,WUHU216HW,2013-02-01 16:27:00,
2013-02-01 11:32:00,27.3,11.1,29.72,WNW,293,2.0,16.3,50,0.00,,,0.00,WUHU216HW,2013-02-01 16:32:00,
2013-02-01 11:37:00,27.3,11.1,29.72,NW,315,0.0,15.4,50,0.00,,,0.00,WUHU216HW,2013-02-01 16:37:00,
2013-02-01 11:42:00,27.1,10.9,29.71,West,270,5.8,13.8,50,0.00,,,0.00,WUHU216HW,2013-02-01 16:42:00,
2013-02-01 11:47:00,27.6,11.8,29.72,WNW,293,12.0,13.8,51,0.00,,,0.00,WUHU216HW,2013-02-01 16:47:00,
2013-02-01 11:52:00,27.6,11.4,29.72,West,270,5.1,13.8,50,0.00,,,0.00,WUHU216HW,2013-02-01 16:52:00,
2013-02-01 11:57:00,27.5,11.3,29.72,WNW,293,14.7,14.7,50,0.00,,,0.00,WUHU216HW,2013-02-01 16:57:00,
2013-02-01 12:02:00,26.9,10.2,29.72,WNW,293,10.5,15.4,49,0.00,,,0.00,WUHU216HW,2013-02-01 17:02:00,
2013-02-01 12:07:00,26.4,9.7,29.72,WNW,293,8.2,15.4,49,0.00,,,0.00,WUHU216HW,2013-02-01 17:07:00,
2013-02-01 12:12:00,26.2,9.1,29.73,WNW,293,7.8,9.8,48,0.00,,,0.00,WUHU216HW,2013-02-01 17:12:00,
2013-02-01 12:17:00,26.4,10.2,29.73,West,270,4.0,11.4,50,0.00,,,0.00,WUHU216HW,2013-02-01 17:17:00,
2013-02-01 12:22:00,27.1,10.9,29.73,West,270,0.0,11.4,50,0.00,,,0.00,WUHU216HW,2013-02-01 17:22:00,
2013-02-01 12:27:00,27.5,10.7,29.73,West,270,4.2,11.4,49,0.00,,,0.00,WUHU216HW,2013-02-01 17:27:00,
2013-02-01 12:32:00,27.5,10.3,29.73,West,270,2.6,11.1,48,0.00,,,0.00,WUHU216HW,2013-02-01 17:32:00,
2013-02-01 12:37:00,27.6,10.4,29.74,NW,315,6.0,11.1,48,0.00,,,0.00,WUHU216HW,2013-02-01 17:37:00,
2013-02-01 12:42:00,28.2,11.0,29.74,West,270,6.4,12.0,48,0.00,,,0.00,WUHU216HW,2013-02-01 17:42:00,
2013-02-01 12:47:00,28.2,10.5,29.74,WNW,293,13.1,14.3,47,0.00,,,0.00,WUHU216HW,2013-02-01 17:47:00,
2013-02-01 12:52:00,28.5,10.3,29.74,NNW,338,8.2,14.5,46,0.00,,,0.00,WUHU216HW,2013-02-01 17:52:00,
2013-02-01 12:57:00,28.2,10.5,29.74,West,270,8.2,14.5,47,0.00,,,0.00,WUHU216HW,2013-02-01 17:57:00,
2013-02-01 13:02:00,28.7,11.0,29.74,NW,315,13.4,13.4,47,0.00,,,0.00,WUHU216HW,2013-02-01 18:02:00,
2013-02-01 13:07:00,28.2,8.9,29.74,West,270,9.1,15.8,44,0.00,,,0.00,WUHU216HW,2013-02-01 18:07:00,
2013-02-01 13:12:00,27.8,9.1,29.74,NNW,338,10.7,15.8,45,0.00,,,0.00,WUHU216HW,2013-02-01 18:12:00,
2013-02-01 13:17:00,27.6,9.4,29.74,NW,315,4.0,13.1,46,0.00,,,0.00,WUHU216HW,2013-02-01 18:17:00,
2013-02-01 13:22:00,27.6,9.9,29.74,NW,315,19.0,19.0,47,0.00,,,0.00,WUHU216HW,2013-02-01 18:22:00,
2013-02-01 13:27:00,27.3,9.1,29.75,WNW,293,10.5,19.0,46,0.00,,,0.00,WUHU216HW,2013-02-01 18:27:00,
2013-02-01 13:32:00,27.1,8.9,29.74,NW,315,5.3,13.1,46,0.00,,,0.00,WUHU216HW,2013-02-01 18:32:00,
2013-02-01 13:37:00,28.0,10.8,29.74,WSW,248,8.5,11.6,48,0.00,,,0.00,WUHU216HW,2013-02-01 18:37:00,
2013-02-01 13:42:00,28.2,10.0,29.75,West,270,0.0,19.2,46,0.00,,,0.00,WUHU216HW,2013-02-01 18:42:00,
2013-02-01 13:47:00,27.8,9.6,29.74,West,270,5.5,19.2,46,0.00,,,0.00,WUHU216HW,2013-02-01 18:47:00,
2013-02-01 13:52:00,28.0,10.3,29.74,SSW,203,1.5,13.6,47,0.00,,,0.00,WUHU216HW,2013-02-01 18:52:00,
2013-02-01 13:57:00,28.2,10.0,29.75,NW,315,9.1,13.1,46,0.00,,,0.00,WUHU216HW,2013-02-01 18:57:00,
2013-02-01 14:02:00,28.5,10.8,29.75,WNW,293,0.0,13.4,47,0.00,,,0.00,WUHU216HW,2013-02-01 19:02:00,
2013-02-01 14:07:00,28.7,10.5,29.75,West,270,4.9,13.4,46,0.00,,,0.00,WUHU216HW,2013-02-01 19:07:00,
2013-02-01 14:12:00,28.9,10.1,29.76,NW,315,3.1,11.4,45,0.00,,,0.00,WUHU216HW,2013-02-01 19:12:00,
2013-02-01 14:17:00,28.5,9.8,29.76,West,270,5.5,11.4,45,0.00,,,0.00,WUHU216HW,2013-02-01 19:17:00,
2013-02-01 14:22:00,28.0,9.3,29.76,WNW,293,10.9,12.0,45,0.00,,,0.00,WUHU216HW,2013-02-01 19:22:00,
2013-02-01 14:27:00,27.3,8.6,29.76,West,270,12.7,12.7,45,0.00,,,0.00,WUHU216HW,2013-02-01 19:27:00,
2013-02-01 14:32:00,27.3,9.1,29.77,NW,315,2.6,16.3,46,0.00,,,0.00,WUHU216HW,2013-02-01 19:32:00,
2013-02-01 14:37:00,27.1,8.9,29.77,NW,315,9.3,16.3,46,0.00,,,0.00,WUHU216HW,2013-02-01 19:37:00,
2013-02-01 14:42:00,27.1,8.9,29.76,WSW,248,0.0,13.1,46,0.00,,,0.00,WUHU216HW,2013-02-01 19:42:00,
2013-02-01 14:47:00,27.1,8.9,29.77,WNW,293,6.7,13.1,46,0.00,,,0.00,WUHU216HW,2013-02-01 19:47:00,
2013-02-01 14:52:00,27.6,8.9,29.77,WNW,293,4.2,15.4,45,0.00,,,0.00,WUHU216HW,2013-02-01 19:52:00,
2013-02-01 14:57:00,27.6,9.4,29.77,NW,315,3.3,15.8,46,0.00,,,0.00,WUHU216HW,2013-02-01 19:57:00,
2013-02-01 15:02:00,27.6,9.4,29.77,WSW,248,3.3,15.8,46,0.00,,,0.00,WUHU216HW,2013-02-01 20:02:00,
2013-02-01 15:07:00,27.6,8.9,29.77,WSW,248,4.2,10.0,45,0.00,,,0.00,WUHU216HW,2013-02-01 20:07:00,
2013-02-01 15:12:00,27.6,8.9,29.78,South,180,0.0,11.4,45,0.00,,,0.00,WUHU216HW,2013-02-01 20:12:00,
2013-02-01 15:17:00,28.0,9.1,29.78,WNW,293,7.6,15.2,45,0.00,,,0.00,WUHU216HW,2013-02-01 20:17:00,
2013-02-01 15:22:00,28.0,9.3,29.78,West,270,4.6,15.2,45,0.00,,,0.00,WUHU216HW,2013-02-01 20:22:00,
2013-02-01 15:27:00,27.5,8.3,29.78,North,0,12.7,12.7,44,0.00,,,0.00,WUHU216HW,2013-02-01 20:27:00,
2013-02-01 15:32:00,27.6,8.4,29.79,NW,315,8.7,12.7,44,0.00,,,0.00,WUHU216HW,2013-02-01 20:32:00,
2013-02-01 15:37:00,27.8,8.3,29.79,WSW,248,8.7,14.9,43,0.00,,,0.00,WUHU216HW,2013-02-01 20:37:00,
2013-02-01 15:42:00,27.8,7.9,29.80,WNW,293,12.5,14.9,43,0.00,,,0.00,WUHU216HW,2013-02-01 20:42:00,
2013-02-01 15:47:00,27.6,7.9,29.80,West,270,8.7,12.5,43,0.00,,,0.00,WUHU216HW,2013-02-01 20:47:00,
2013-02-01 15:52:00,27.5,8.3,29.80,WNW,293,11.4,15.6,44,0.00,,,0.00,WUHU216HW,2013-02-01 20:52:00,
2013-02-01 15:57:00,27.3,8.1,29.80,WNW,293,12.7,15.6,44,0.00,,,0.00,WUHU216HW,2013-02-01 20:57:00,
2013-02-01 16:02:00,26.7,7.3,29.80,SSW,203,9.1,12.7,43,0.00,,,0.00,WUHU216HW,2013-02-01 21:02:00,
2013-02-01 16:07:00,26.4,7.3,29.81,SW,225,12.7,12.7,44,0.00,,,0.00,WUHU216HW,2013-02-01 21:07:00,
2013-02-01 16:12:00,26.4,7.3,29.81,WSW,248,6.7,12.7,44,0.00,,,0.00,WUHU216HW,2013-02-01 21:12:00,
2013-02-01 16:17:00,26.0,6.9,29.81,WNW,293,4.9,10.2,44,0.00,,,0.00,WUHU216HW,2013-02-01 21:17:00,
2013-02-01 16:22:00,25.8,6.8,29.82,NW,315,6.9,6.9,44,0.00,,,0.00,WUHU216HW,2013-02-01 21:22:00,
2013-02-01 16:27:00,25.8,6.8,29.82,NW,315,13.6,13.6,44,0.00,,,0.00,WUHU216HW,2013-02-01 21:27:00,
2013-02-01 16:32:00,26.2,7.4,29.82,WSW,248,7.6,13.6,45,0.00,,,0.00,WUHU216HW,2013-02-01 21:32:00,
2013-02-01 16:37:00,26.2,7.6,29.82,WNW,293,5.8,9.3,45,0.00,,,0.00,WUHU216HW,2013-02-01 21:37:00,
2013-02-01 16:42:00,25.8,7.3,29.83,West,270,1.3,5.8,45,0.00,,,0.00,WUHU216HW,2013-02-01 21:42:00,
2013-02-01 16:47:00,25.3,6.8,29.83,West,270,2.2,7.6,45,0.00,,,0.00,WUHU216HW,2013-02-01 21:47:00,
2013-02-01 16:52:00,24.8,6.3,29.83,WNW,293,3.8,7.6,45,0.00,,,0.00,WUHU216HW,2013-02-01 21:52:00,
2013-02-01 16:57:00,24.4,6.0,29.83,WNW,293,11.1,11.1,45,0.00,,,0.00,WUHU216HW,2013-02-01 21:57:00,
2013-02-01 17:03:00,23.9,6.0,29.83,West,270,2.0,11.1,46,0.00,,,0.00,WUHU216HW,2013-02-01 22:03:00,
2013-02-01 17:08:00,23.5,5.7,29.84,NW,315,7.8,10.0,46,0.00,,,0.00,WUHU216HW,2013-02-01 22:08:00,
2013-02-01 17:13:00,23.1,5.3,29.84,NW,315,0.0,8.7,46,0.00,,,0.00,WUHU216HW,2013-02-01 22:13:00,
2013-02-01 17:18:00,22.8,5.5,29.83,West,270,0.0,8.7,47,0.00,,,0.00,WUHU216HW,2013-02-01 22:18:00,
2013-02-01 17:23:00,22.8,5.5,29.84,NW,315,6.9,11.8,47,0.00,,,0.00,WUHU216HW,2013-02-01 22:23:00,
2013-02-01 17:28:00,22.4,5.8,29.84,WNW,293,6.2,11.8,48,0.00,,,0.00,WUHU216HW,2013-02-01 22:28:00,
2013-02-01 17:33:00,22.2,5.4,29.84,West,270,2.4,8.9,48,0.00,,,0.00,WUHU216HW,2013-02-01 22:33:00,
2013-02-01 17:38:00,22.1,5.3,29.85,West,270,2.2,8.7,48,0.00,,,0.00,WUHU216HW,2013-02-01 22:38:00,
2013-02-01 17:43:00,21.9,5.1,29.85,WNW,293,5.1,7.6,48,0.00,,,0.00,WUHU216HW,2013-02-01 22:43:00,
2013-02-01 17:48:00,21.9,5.5,29.86,West,270,0.0,7.6,49,0.00,,,0.00,WUHU216HW,2013-02-01 22:48:00,
2013-02-01 17:53:00,21.7,5.4,29.86,West,270,0.0,7.6,49,0.00,,,0.00,WUHU216HW,2013-02-01 22:53:00,
2013-02-01 17:58:00,21.7,5.4,29.86,WSW,248,1.3,7.6,49,0.00,,,0.00,WUHU216HW,2013-02-01 22:58:00,
2013-02-01 18:03:00,21.7,5.9,29.86,West,270,0.0,10.0,50,0.00,,,0.00,WUHU216HW,2013-02-01 23:03:00,
2013-02-01 18:08:00,21.7,5.9,29.86,WSW,248,0.0,10.0,50,0.00,,,0.00,WUHU216HW,2013-02-01 23:08:00,
2013-02-01 18:13:00,21.7,5.9,29.87,West,270,0.0,11.6,50,0.00,,,0.00,WUHU216HW,2013-02-01 23:13:00,
2013-02-01 18:18:00,21.7,5.9,29.87,WSW,248,0.0,11.6,50,0.00,,,0.00,WUHU216HW,2013-02-01 23:18:00,
2013-02-01 18:23:00,21.7,5.9,29.87,WSW,248,3.3,10.5,50,0.00,,,0.00,WUHU216HW,2013-02-01 23:23:00,
2013-02-01 18:28:00,21.7,5.9,29.87,West,270,10.0,10.5,50,0.00,,,0.00,WUHU216HW,2013-02-01 23:28:00,
2013-02-01 18:33:00,21.7,5.9,29.88,WNW,293,8.7,10.0,50,0.00,,,0.00,WUHU216HW,2013-02-01 23:33:00,
2013-02-01 18:38:00,21.5,5.7,29.88,West,270,4.2,8.7,50,0.00,,,0.00,WUHU216HW,2013-02-01 23:38:00,
2013-02-01 18:43:00,21.3,5.5,29.88,West,270,9.3,13.6,50,0.00,,,0.00,WUHU216HW,2013-02-01 23:43:00,
2013-02-01 18:48:00,21.3,5.5,29.88,West,270,0.0,13.6,50,0.00,,,0.00,WUHU216HW,2013-02-01 23:48:00,
2013-02-01 18:53:00,21.0,5.5,29.88,WSW,248,0.0,9.3,51,0.00,,,0.00,WUHU216HW,2013-02-01 23:53:00,
2013-02-01 18:58:00,21.0,5.5,29.89,WSW,248,0.0,5.3,51,0.00,,,0.00,WUHU216HW,2013-02-01 23:58:00,
2013-02-01 19:03:00,20.8,6.0,29.89,WSW,248,0.0,5.3,52,0.00,,,0.00,WUHU216HW,2013-02-02 00:03:00,
2013-02-01 19:08:00,20.8,5.8,29.90,West,270,0.0,5.5,52,0.00,,,0.00,WUHU216HW,2013-02-02 00:08:00,
2013-02-01 19:13:00,20.8,5.8,29.90,West,270,0.0,6.4,52,0.00,,,0.00,WUHU216HW,2013-02-02 00:13:00,
2013-02-01 19:18:00,20.6,5.6,29.89,WNW,293,0.0,6.4,52,0.00,,,0.00,WUHU216HW,2013-02-02 00:18:00,
2013-02-01 19:23:00,20.4,5.5,29.90,NW,315,3.1,5.1,52,0.00,,,0.00,WUHU216HW,2013-02-02 00:23:00,
2013-02-01 19:28:00,20.4,5.5,29.90,West,270,10.2,10.2,52,0.00,,,0.00,WUHU216HW,2013-02-02 00:28:00,
2013-02-01 19:33:00,20.3,5.3,29.90,NW,315,7.3,10.2,52,0.00,,,0.00,WUHU216HW,2013-02-02 00:33:00,
2013-02-01 19:38:00,20.3,5.3,29.90,West,270,5.1,7.6,52,0.00,,,0.00,WUHU216HW,2013-02-02 00:38:00,
2013-02-01 19:43:00,20.1,5.1,29.90,WNW,293,0.0,7.6,52,0.00,,,0.00,WUHU216HW,2013-02-02 00:43:00,
2013-02-01 19:48:00,20.1,5.5,29.90,West,270,0.0,5.5,53,0.00,,,0.00,WUHU216HW,2013-02-02 00:48:00,
2013-02-01 19:53:00,19.9,5.4,29.91,WNW,293,0.0,5.3,53,0.00,,,0.00,WUHU216HW,2013-02-02 00:53:00,
2013-02-01 19:58:00,19.9,5.4,29.91,WNW,293,0.0,5.3,53,0.00,,,0.00,WUHU216HW,2013-02-02 00:58:00,
2013-02-01 20:03:00,19.9,5.4,29.91,WSW,248,1.5,2.4,53,0.00,,,0.00,WUHU216HW,2013-02-02 01:03:00,
2013-02-01 20:08:00,19.7,5.2,29.91,WNW,293,7.6,7.6,53,0.00,,,0.00,WUHU216HW,2013-02-02 01:08:00,
2013-02-01 20:13:00,19.7,4.8,29.92,NW,315,0.0,8.9,52,0.00,,,0.00,WUHU216HW,2013-02-02 01:13:00,
2013-02-01 20:18:00,19.7,5.2,29.92,WNW,293,0.6,8.9,53,0.00,,,0.00,WUHU216HW,2013-02-02 01:18:00,
2013-02-01 20:23:00,19.5,5.0,29.92,NW,315,9.8,10.5,53,0.00,,,0.00,WUHU216HW,2013-02-02 01:23:00,
2013-02-01 20:28:00,19.5,5.0,29.92,West,270,6.4,10.5,53,0.00,,,0.00,WUHU216HW,2013-02-02 01:28:00,
2013-02-01 20:33:00,19.5,4.6,29.92,NW,315,7.8,9.3,52,0.00,,,0.00,WUHU216HW,2013-02-02 01:33:00,
2013-02-01 20:38:00,19.5,4.6,29.91,WNW,293,0.0,9.1,52,0.00,,,0.00,WUHU216HW,2013-02-02 01:38:00,
2013-02-01 20:43:00,19.5,5.0,29.92,West,270,0.0,6.9,53,0.00,,,0.00,WUHU216HW,2013-02-02 01:43:00,
2013-02-01 20:48:00,19.5,4.6,29.92,West,270,5.1,8.5,52,0.00,,,0.00,WUHU216HW,2013-02-02 01:48:00,
2013-02-01 20:53:00,19.5,5.0,29.93,NW,315,4.6,8.5,53,0.00,,,0.00,WUHU216HW,2013-02-02 01:53:00,
2013-02-01 20:58:00,19.4,4.9,29.92,WNW,293,0.0,5.3,53,0.00,,,0.00,WUHU216HW,2013-02-02 01:58:00,
2013-02-01 21:03:00,19.2,5.1,29.91,WNW,293,0.0,4.9,54,0.00,,,0.00,WUHU216HW,2013-02-02 02:03:00,
2013-02-01 21:08:00,19.2,5.1,29.92,WNW,293,0.0,4.9,54,0.00,,,0.00,WUHU216HW,2013-02-02 02:08:00,
2013-02-01 21:13:00,19.2,5.5,29.92,NNW,338,0.0,4.4,55,0.00,,,0.00,WUHU216HW,2013-02-02 02:13:00,
2013-02-01 21:18:00,19.2,5.5,29.92,SW,225,0.0,6.0,55,0.00,,,0.00,WUHU216HW,2013-02-02 02:18:00,
2013-02-01 21:23:00,19.2,5.9,29.93,WSW,248,3.5,6.0,56,0.00,,,0.00,WUHU216HW,2013-02-02 02:23:00,
2013-02-01 21:29:00,19.0,5.7,29.93,WSW,248,0.0,6.9,56,0.00,,,0.00,WUHU216HW,2013-02-02 02:29:00,
2013-02-01 21:34:00,19.0,5.7,29.93,West,270,0.0,6.9,56,0.00,,,0.00,WUHU216HW,2013-02-02 02:34:00,
2013-02-01 21:39:00,18.8,6.0,29.93,WSW,248,0.0,4.2,57,0.00,,,0.00,WUHU216HW,2013-02-02 02:39:00,
2013-02-01 21:44:00,18.6,5.8,29.93,WSW,248,3.8,4.4,57,0.00,,,0.00,WUHU216HW,2013-02-02 02:44:00,
2013-02-01 21:49:00,18.6,6.2,29.93,West,270,4.2,6.4,58,0.00,,,0.00,WUHU216HW,2013-02-02 02:49:00,
2013-02-01 21:54:00,18.6,6.2,29.93,WNW,293,0.0,6.4,58,0.00,,,0.00,WUHU216HW,2013-02-02 02:54:00,
2013-02-01 21:59:00,18.6,6.2,29.93,West,270,0.0,3.1,58,0.00,,,0.00,WUHU216HW,2013-02-02 02:59:00,
2013-02-01 22:04:00,18.5,6.0,29.94,WSW,248,0.0,0.0,58,0.00,,,0.00,WUHU216HW,2013-02-02 03:04:00,
2013-02-01 22:09:00,18.5,6.0,29.94,NW,315,0.0,0.0,58,0.00,,,0.00,WUHU216HW,2013-02-02 03:09:00,
2013-02-01 22:14:00,18.5,6.0,29.94,WNW,293,0.0,5.5,58,0.00,,,0.00,WUHU216HW,2013-02-02 03:14:00,
2013-02-01 22:19:00,18.5,5.7,29.95,NW,315,2.2,5.5,57,0.00,,,0.00,WUHU216HW,2013-02-02 03:19:00,
2013-02-01 22:24:00,18.5,5.7,29.94,NW,315,0.0,9.6,57,0.00,,,0.00,WUHU216HW,2013-02-02 03:24:00,
2013-02-01 22:29:00,18.5,5.7,29.95,WNW,293,1.3,9.6,57,0.00,,,0.00,WUHU216HW,2013-02-02 03:29:00,
2013-02-01 22:34:00,18.5,5.7,29.94,WNW,293,0.0,3.8,57,0.00,,,0.00,WUHU216HW,2013-02-02 03:34:00,
2013-02-01 22:39:00,18.3,5.5,29.95,WNW,293,0.0,3.8,57,0.00,,,0.00,WUHU216HW,2013-02-02 03:39:00,
2013-02-01 22:44:00,18.3,5.1,29.95,NW,315,0.0,0.0,56,0.00,,,0.00,WUHU216HW,2013-02-02 03:44:00,
2013-02-01 22:50:00,18.3,5.1,29.95,NW,315,0.0,0.0,56,0.00,,,0.00,WUHU216HW,2013-02-02 03:50:00,
2013-02-01 22:55:00,18.1,5.3,29.95,NW,315,0.0,0.0,57,0.00,,,0.00,WUHU216HW,2013-02-02 03:55:00,
2013-02-01 23:00:00,18.1,5.3,29.95,NW,315,0.0,0.0,57,0.00,,,0.00,WUHU216HW,2013-02-02 04:00:00,
2013-02-01 23:05:00,17.9,5.2,29.95,NW,315,0.0,0.0,57,0.00,,,0.00,WUHU216HW,2013-02-02 04:05:00,
2013-02-01 23:10:00,17.7,5.2,29.95,NW,315,0.0,0.0,57,0.00,,,0.00,WUHU216HW,2013-02-02 04:10:00,
2013-02-01 23:15:00,17.9,5.2,29.95,NW,315,0.0,0.0,57,0.00,,,0.00,WUHU216HW,2013-02-02 04:15:00,
2013-02-01 23:20:00,17.9,5.6,29.95,NW,315,0.0,0.0,58,0.00,,,0.00,WUHU216HW,2013-02-02 04:20:00,
2013-02-01 23:25:00,17.9,5.4,29.95,NW,315,0.0,0.0,58,0.00,,,0.00,WUHU216HW,2013-02-02 04:25:00,
2013-02-01 23:30:00,17.7,5.4,29.96,WNW,293,0.0,0.0,58,0.00,,,0.00,WUHU216HW,2013-02-02 04:30:00,
2013-02-01 23:35:00,17.7,5.4,29.95,West,270,0.0,0.0,58,0.00,,,0.00,WUHU216HW,2013-02-02 04:35:00,
2013-02-01 23:40:00,17.7,5.4,29.95,West,270,0.0,0.0,58,0.00,,,0.00,WUHU216HW,2013-02-02 04:40:00,
2013-02-01 23:45:00,17.7,5.8,29.95,West,270,0.0,0.0,59,0.00,,,0.00,WUHU216HW,2013-02-02 04:45:00,
2013-02-01 23:50:00,17.7,5.8,29.95,West,270,0.0,0.0,59,0.00,,,0.00,WUHU216HW,2013-02-02 04:50:00,
2013-02-01 23:55:00,17.6,5.6,29.95,SW,225,0.0,4.6,59,0.00,,,0.00,WUHU216HW,2013-02-02 04:55:00,